COSMOS 2558 (53323 NORAD) Tracking and Keplerian Element Data

This shows tracking and keplerian element data for the satellite.

Feedback or suggestion? Click here.




ElementValue
Catalog53323
NameCOSMOS 2558
Epoch Orbit864
Epoch Day269.93991066
Epoch Year2022
RAAN7.4468
Inclination97.1952
Eccentricity0.0015924
Argument of Perigee84.1003
Mean Anonmoly276.2058
Mean Motion15.41285399
Decay Rate0.00016362
L11 53323U 22089A 22269.93991066 .00016362 00000+0 39299-3 0 9993
L22 53323 97.1952 7.4468 0015924 84.1003 276.2058 15.41285399 8642

Live tracking and technical data element details for COSMOS 2558 (NORAD 53323). COSMOS 2558 can be tracked NOW for your location showing map with azimuth and elevation plus other details from your city location.

Track the satellite on the map from your city or location and see movement details for azimuth, elevation, latitude, longitude, range, height, and movement on the map or in text.







IsCatalogInMostPopularTable: catalog: 53323, numindb: 3
Update: records affected: 1



GetName: 53323 COSMOS 2558

Hit Count: updated at: Thu, 29 Sep 2022 10:27:59 GMT